Temperature
17 17 17 17 17 17 17 17 17 17 17 17 17 17 17 17 17 17 17 16 16 16 16 16 16 16 16 15 15 15 15 15 15 15 14 14 14 14
17 17 17 17 17 17 17 17 17 17 17 17 17 17 17 16 16 16 16 16 16 16 16 15 15 15 15 15 15 15 15 15 15 14 14 14 14 14
16 16 16 17 16 16 17 17 17 16 16 16 16 16 16 16 16 16 16 16 15 15 15 15 15 15 15 15 14 14 14 14 14 14 14 14 14 13
16 16 16 16 16 16 16 16 16 16 16 16 16 16 15 15 15 15 15 15 15 15 15 14 14 14 14 14 14 14 14 14 14 14 13 13 13 13
16 16 16 16 16 16 16 16 16 16 15 15 15 15 15 15 15 15 15 14 14 14 14 14 14 13 13 13 13 13 13 13 13 13 13 13 12 12
15 15 15 15 15 15 15 15 15 15 15 15 14 14 14 14 14 14 14 14 14 13 13 13 13 13 13 13 12 12 12 12 12 12 12 12 12 11
15 15 15 15 15 15 15 15 15 14 14 14 14 14 14 14 14 13 13 13 13 13 12 12 12 12 12 12 12 11 11 11 11 11 11 11 11 11
14 14 14 14 14 14 14 14 14 14 14 14 13 13 13 13 13 13 13 13 12 12 12 12 11 11 11 11 11 10 10 10 10 10 10 10 10 10
14 14 14 14 14 13 13 13 13 13 13 13 13 12 12 12 12 12 12 12 12 12 11 11 11 10 10 10 10 10 10 9 9 9 9 9 9 9
14 13 13 13 13 13 13 13 13 12 12 12 12 12 12 12 12 12 12 11 11 11 11 10 10 10 9 9 9 9 9 9 8 8 8 8 8 8
13 13 13 13 12 12 12 12 12 12 11 11 11 11 11 11 11 11 11 11 10 10 10 10 9 9 9 9 9 8 8 8 8 8 8 8 8 7
12 12 12 12 12 12 11 11 11 11 11 11 11 10 10 10 10 10 10 10 10 9 9 9 9 9 8 8 8 8 8 8 7 7 7 7 7 7
12 11 11 11 11 11 11 11 10 10 10 10 10 10 10 10 9 9 9 9 9 9 8 8 8 8 8 8 8 8 7 7 7 7 7 7 7 7
11 11 10 10 10 10 10 10 10 10 10 10 9 9 9 9 9 8 8 8 8 8 8 8 8 8 8 7 7 7 7 7 7 7 7 6 6 6
10 10 10 10 10 10 10 9 9 9 9 9 9 8 8 8 8 8 8 8 8 8 8 7 7 7 7 7 7 7 7 7 6 6 6 6 6 6
10 9 9 9 9 9 9 9 9 9 8 8 8 8 8 8 7 7 7 7 7 7 7 7 7 7 7 7 7 7 7 6 6 6 6 6 6 6
9 9 9 9 9 9 8 8 8 8 8 8 8 8 8 7 7 7 7 7 7 7 7 7 7 7 7 7 7 6 6 6 6 6 6 6 5 5
9 9 8 8 8 8 8 8 8 8 7 7 7 7 7 7 7 7 7 7 7 7 7 6 6 6 7 6 6 6 6 6 6 5 5 5 5 5
9 8 8 8 8 8 8 7 7 7 7 7 7 7 7 7 7 7 7 7 6 6 6 6 6 6 6 6 6 6 6 5 5 5 5 5 5 5
8 8 8 8 8 7 7 7 7 7 7 7 6 6 6 6 6 6 6 6 6 6 6 6 6 6 6 6 6 6 6 5 5 5 5 5 5 5
8 8 7 7 7 7 7 7 6 6 6 6 6 6 6 6 6 6 6 6 6 6 6 6 6 6 6 6 6 6 6 6 5 5 5 5 5 5
8 7 7 7 7 7 7 6 6 6 6 6 6 6 6 6 6 6 6 6 6 6 6 6 6 6 6 6 6 6 6 6 5 5 5 5 5 5
7 7 7 7 7 6 6 6 6 6 6 6 6 6 6 6 6 6 6 6 6 6 6 6 6 6 6 6 6 6 6 6 5 5 5 5 5 5
Wind_Speed
3 3 2 3 3 3 2 2 2 3 4 2 1 1 2 3 6 7 6 9 10 9 8 7 7 7 7 8 7 8 8 8 8 8 8 8 9 9
2 2 2 3 3 2 2 2 2 3 4 2 2 1 1 2 5 6 6 7 8 8 8 7 7 6 6 6 6 6 6 6 6 7 7 7 7 7
3 2 2 2 2 2 2 2 3 2 3 3 1 1 1 1 2 3 4 5 5 7 7 6 6 4 3 3 3 3 4 4 5 5 5 6 6 6
3 2 2 2 2 2 3 3 3 2 2 3 2 1 1 1 1 1 2 2 3 6 7 6 5 5 4 3 2 2 1 2 2 2 2 3 3 4
1 1 1 1 2 2 2 3 3 3 1 1 2 1 1 1 1 1 2 3 3 6 7 7 6 6 6 5 5 5 4 3 3 2 2 1 1 1
1 1 2 2 2 2 2 3 3 2 2 1 1 1 0 0 1 0 1 1 1 4 6 7 8 7 7 7 7 6 6 6 6 5 5 4 4 3
2 3 4 5 6 5 3 3 3 2 2 1 1 1 1 1 1 1 0 0 1 2 2 3 5 6 6 6 6 7 7 8 8 8 7 7 6 5
4 4 4 6 6 7 9 9 7 4 2 2 2 2 2 2 2 0 0 1 0 1 1 1 3 3 5 6 7 7 7 7 7 7 6 6 5 5
4 4 4 5 5 4 6 7 8 9 6 3 3 3 3 3 3 2 1 1 1 0 0 1 2 3 5 6 7 8 7 6 6 5 4 4 3 2
6 5 4 4 4 4 4 6 7 7 7 6 5 4 4 4 3 2 1 1 2 2 2 1 1 2 3 5 5 5 5 4 5 4 3 2 1 1
7 7 6 6 7 6 5 5 5 4 7 9 9 8 10 11 9 4 3 1 1 3 4 2 1 1 2 1 3 4 3 2 1 1 0 1 2 2
6 7 10 8 8 7 4 4 4 3 3 5 5 6 7 9 12 7 4 3 2 2 3 3 1 1 1 1 2 3 2 2 3 3 3 2 2 2
5 5 5 9 9 9 7 4 3 3 2 3 4 4 4 5 7 9 7 4 4 3 3 2 1 1 1 0 0 2 2 2 3 3 4 4 3 2
5 4 5 8 9 8 5 6 6 4 2 3 4 5 5 5 4 6 8 7 6 4 3 3 2 1 1 1 1 0 0 0 1 1 1 1 2 1
5 6 5 5 5 4 5 5 4 3 3 4 5 4 3 3 3 3 4 4 4 6 6 4 2 2 2 1 1 1 0 0 1 1 1 0 1 1
4 4 4 5 4 4 4 3 3 3 3 4 4 3 2 2 2 2 2 2 3 3 5 6 5 3 3 3 2 2 1 1 1 1 2 1 2 1
2 2 3 3 3 3 4 5 5 5 5 4 4 3 3 3 3 3 3 2 3 3 3 2 4 3 3 3 2 3 2 2 2 1 2 1 1 1
5 4 4 4 5 5 5 5 5 5 4 4 4 4 3 4 4 4 4 4 4 4 3 3 3 3 2 3 5 4 3 3 2 2 2 2 2 2
4 4 5 5 5 5 5 5 5 5 4 4 4 4 4 4 4 4 4 4 3 3 2 2 3 3 3 2 2 3 2 3 3 3 2 2 1 0
4 4 4 4 4 4 5 4 4 4 3 3 4 4 4 4 3 3 3 3 3 3 2 3 3 3 3 3 1 2 2 1 2 2 3 2 1 1
4 4 4 4 4 4 4 4 4 3 3 3 3 3 3 3 3 3 2 3 3 3 3 3 2 4 3 2 2 1 1 4 4 2 2 3 2 2
4 4 4 4 4 4 3 3 3 3 2 2 2 2 3 3 3 3 3 3 2 3 3 2 2 3 3 3 3 2 1 2 6 9 9 7 3 2
4 4 3 3 3 3 3 3 3 3 3 3 3 3 3 3 3 3 3 4 4 3 3 3 3 3 3 3 3 3 3 3 2 3 4 11 14 16
Wind_Direction
232 233 251 273 277 277 281 276 263 280 282 293 279 167 129 129 152 164 157 176 187 194 199 205 212 218 223 229 234 237 240 242 241 240 240 241 241 245
229 232 245 270 278 283 286 288 270 253 269 275 285 306 87 122 148 156 150 151 171 181 186 189 194 201 206 213 221 226 230 232 232 233 235 236 238 242
239 231 241 264 293 309 306 298 289 272 266 279 294 356 12 43 109 139 143 147 147 167 171 173 174 170 174 179 194 209 218 224 229 232 234 233 233 233
240 246 241 252 258 297 307 303 299 299 275 280 303 339 342 358 94 123 117 150 129 138 148 142 129 118 110 106 108 118 151 186 206 222 230 225 224 226
271 285 293 298 311 309 306 305 303 297 294 275 272 268 325 329 49 72 67 75 81 101 114 112 108 104 99 95 90 85 85 94 100 100 98 102 112 141
28 35 29 20 355 327 319 320 312 324 340 317 292 332 16 360 85 116 61 86 89 89 93 104 103 97 92 89 85 84 84 81 79 81 83 86 86 84
55 60 63 61 55 42 26 11 1 4 1 23 34 35 19 14 332 290 354 137 89 93 111 105 97 93 90 89 88 87 86 84 82 80 80 81 81 79
56 61 74 68 68 75 68 57 47 37 18 27 30 34 14 1 336 329 199 256 225 98 118 107 112 98 93 90 96 100 98 93 91 86 83 81 80 81
54 47 49 50 51 65 77 65 54 50 53 60 49 28 16 1 341 331 340 358 355 353 89 130 111 95 99 100 99 95 93 92 92 92 89 85 81 81
50 50 61 48 43 51 76 79 68 51 55 68 68 49 33 8 353 342 331 73 76 39 25 91 89 85 100 111 112 108 102 95 90 81 68 57 35 341
56 48 50 55 39 49 79 90 86 81 71 78 77 67 54 42 34 31 23 55 70 44 21 29 38 79 96 113 150 152 143 140 134 110 353 336 328 311
70 58 54 51 34 37 61 77 75 62 70 71 68 57 54 49 44 37 28 35 56 53 19 22 16 10 70 108 147 162 173 209 217 233 254 278 299 288
76 65 53 49 45 43 54 59 52 38 58 81 80 67 57 51 49 45 41 46 56 50 20 17 10 353 359 12 251 193 186 208 211 228 242 251 262 255
73 75 68 60 55 46 49 37 33 38 55 69 72 65 58 50 50 52 55 57 65 79 53 27 9 352 346 351 350 318 186 228 127 197 227 245 240 250
77 79 72 64 59 54 48 39 42 51 59 72 70 64 59 46 39 48 45 46 61 66 67 51 29 16 354 345 6 21 18 6 55 27 8 184 214 200
94 97 87 66 56 42 44 45 52 47 53 66 65 59 58 57 47 42 39 37 58 60 51 48 40 34 15 11 25 30 31 12 7 39 24 339 336 86
72 85 77 73 71 69 64 55 55 49 44 47 53 53 51 46 45 35 19 17 36 48 43 16 20 30 51 32 26 23 17 23 20 12 348 342 345 84
60 60 64 61 63 66 66 67 62 50 37 40 44 40 39 43 44 39 28 28 31 39 40 20 6 357 8 43 33 17 14 8 349 338 341 352 5 48
63 65 65 61 59 61 63 63 64 54 37 39 38 34 33 38 44 41 34 25 19 17 33 28 17 9 0 12 2 4 2 352 346 345 346 344 332 258
71 69 72 71 65 61 64 64 64 58 42 40 44 31 24 28 30 31 37 15 357 358 18 33 28 13 350 335 324 295 281 322 345 331 329 328 331 328
76 73 70 70 69 63 59 58 58 58 46 35 40 23 14 18 19 11 20 12 344 354 16 23 342 306 278 292 300 305 252 233 236 245 292 305 308 299
72 75 71 67 61 59 59 52 56 56 39 29 28 7 359 359 1 4 4 353 1 12 2 341 298 307 311 320 323 311 284 260 259 256 250 248 246 270
74 72 72 69 66 53 50 54 48 41 29 12 7 355 351 352 343 357 0 354 355 358 351 341 335 321 313 311 318 322 314 300 273 254 256 253 248 252
Height
1563 1564 1565 1565 1566 1566 1567 1567 1568 1566 1566 1566 1566 1565 1565 1565 1565 1565 1565 1565 1565 1566 1565 1566 1566 1566 1566 1566 1567 1567 1567 1567 1567 1568 1568 1568 1568 1569
1560 1561 1562 1562 1563 1563 1564 1564 1564 1564 1563 1562 1563 1563 1563 1562 1562 1562 1562 1562 1562 1562 1562 1562 1561 1562 1562 1562 1562 1562 1562 1562 1563 1563 1563 1563 1564 1564
1557 1558 1558 1559 1560 1560 1561 1560 1560 1560 1559 1559 1559 1559 1559 1559 1559 1559 1559 1559 1559 1558 1558 1558 1558 1558 1558 1558 1558 1558 1558 1558 1558 1558 1558 1559 1559 1559
1554 1555 1555 1556 1556 1557 1557 1557 1557 1556 1556 1555 1555 1555 1555 1556 1556 1556 1555 1555 1556 1555 1555 1554 1554 1554 1554 1553 1553 1553 1553 1553 1553 1553 1553 1553 1554 1554
1551 1552 1553 1553 1553 1553 1553 1553 1553 1553 1552 1552 1551 1551 1552 1552 1552 1552 1552 1552 1552 1551 1551 1551 1551 1551 1550 1550 1549 1549 1548 1548 1548 1548 1548 1548 1548 1548
1549 1550 1550 1550 1550 1550 1550 1550 1550 1549 1549 1548 1548 1548 1548 1549 1549 1549 1549 1549 1549 1549 1548 1548 1548 1548 1547 1547 1546 1545 1545 1544 1544 1543 1543 1543 1543 1543
1547 1547 1548 1548 1548 1548 1548 1548 1547 1547 1546 1546 1546 1546 1546 1546 1546 1546 1546 1547 1547 1546 1546 1546 1545 1545 1544 1544 1543 1543 1542 1541 1541 1540 1539 1539 1539 1539
1545 1546 1546 1546 1545 1546 1546 1546 1545 1545 1544 1544 1544 1544 1544 1544 1544 1544 1544 1544 1544 1545 1544 1543 1543 1542 1542 1541 1541 1540 1540 1539 1538 1537 1537 1536 1536 1535
1544 1544 1544 1544 1544 1544 1544 1544 1543 1543 1543 1543 1542 1542 1542 1542 1542 1542 1542 1542 1542 1542 1542 1541 1541 1540 1540 1540 1539 1539 1538 1537 1536 1535 1535 1534 1534 1533
1543 1543 1543 1543 1543 1543 1543 1542 1542 1542 1542 1542 1541 1541 1541 1541 1540 1540 1540 1540 1540 1539 1539 1539 1539 1538 1538 1538 1538 1538 1537 1536 1535 1534 1533 1533 1532 1532
1543 1542 1542 1542 1542 1542 1542 1542 1541 1541 1542 1541 1541 1541 1540 1540 1539 1539 1538 1538 1538 1538 1538 1538 1538 1537 1537 1537 1537 1536 1536 1536 1535 1533 1533 1532 1531 1531
1542 1542 1542 1542 1542 1542 1542 1541 1541 1541 1542 1541 1541 1540 1540 1539 1538 1538 1537 1537 1536 1536 1536 1537 1537 1537 1537 1537 1536 1536 1535 1534 1534 1533 1532 1531 1530 1529
1542 1542 1542 1542 1542 1542 1542 1542 1542 1542 1542 1541 1541 1540 1540 1539 1538 1538 1537 1537 1536 1536 1537 1536 1536 1536 1536 1536 1536 1536 1535 1534 1533 1532 1531 1530 1529 1529
1543 1543 1543 1543 1543 1543 1543 1543 1543 1543 1542 1542 1541 1541 1540 1540 1539 1539 1538 1538 1538 1537 1537 1537 1536 1536 1536 1536 1536 1536 1535 1534 1533 1532 1531 1530 1529 1528
1544 1544 1544 1544 1544 1543 1543 1543 1543 1543 1542 1542 1542 1542 1542 1541 1541 1540 1540 1539 1539 1538 1538 1538 1537 1537 1536 1536 1536 1535 1535 1534 1533 1532 1531 1529 1528 1527
1545 1545 1545 1545 1545 1544 1544 1544 1544 1544 1543 1543 1543 1543 1543 1543 1542 1542 1541 1541 1540 1540 1540 1539 1538 1538 1537 1536 1536 1535 1535 1534 1533 1532 1530 1529 1528 1527
1547 1547 1547 1546 1546 1546 1546 1545 1545 1545 1545 1545 1545 1544 1544 1544 1544 1544 1543 1542 1542 1541 1540 1540 1539 1538 1537 1537 1536 1535 1535 1534 1533 1531 1530 1529 1527 1526
1549 1549 1549 1549 1548 1548 1548 1548 1547 1547 1547 1547 1547 1546 1546 1546 1545 1545 1545 1544 1543 1543 1542 1541 1540 1539 1538 1537 1537 1536 1535 1533 1532 1531 1529 1528 1527 1525
1551 1551 1551 1551 1551 1551 1551 1550 1550 1550 1549 1549 1549 1548 1548 1548 1547 1547 1546 1545 1544 1544 1543 1542 1541 1539 1538 1537 1537 1536 1535 1533 1532 1530 1529 1527 1526 1524
1554 1554 1554 1554 1554 1553 1553 1552 1552 1552 1551 1551 1551 1551 1550 1550 1549 1548 1547 1547 1546 1545 1544 1543 1541 1540 1539 1538 1537 1536 1535 1533 1531 1530 1528 1526 1525 1524
1556 1556 1556 1556 1555 1555 1555 1555 1554 1554 1554 1553 1553 1552 1552 1551 1550 1550 1549 1548 1547 1546 1544 1543 1542 1541 1539 1538 1537 1535 1534 1533 1531 1529 1527 1525 1524 1522
1558 1558 1558 1558 1557 1557 1557 1557 1556 1556 1555 1555 1554 1554 1553 1553 1552 1551 1550 1549 1547 1546 1545 1544 1542 1541 1539 1538 1536 1535 1533 1532 1530 1528 1526 1525 1523 1520
1559 1559 1559 1559 1559 1558 1558 1558 1557 1557 1556 1556 1555 1555 1554 1553 1552 1551 1550 1549 1548 1547 1545 1544 1542 1541 1539 1537 1536 1534 1532 1530 1528 1526 1525 1523 1521 1520